Location: Sommers-Bausch Observatory
(40.0037°N, 105.2635°W)
Time: 16:14:27
(UTC-06:00)

Amateur Radio Satellites - All Passes

Search period start: 28 March 2015 15:44
Search period end: 29 March 2015 15:44
Location: Sommers-Bausch Observatory, 40.0037°N, 105.2635°W

Satellite Date Start Highest point End Downlink Frequencies (MHz)
Time Altitude Azimuth
KKS-1 28 Mar 15:50:08 15:54:35 78° 103° (ESE) 15:59:02 437.445
JAS-2 28 Mar 15:51:22 15:57:52 49° 69° (ENE) 16:05:07 435.910
AIST 1 28 Mar 15:57:59 16:02:19 86° 267° (W) 16:06:36
YUBILEINY 28 Mar 15:58:27 16:05:58 29° 293° (WNW) 16:13:17 435.215
O/OREOS (USA 219) 28 Mar 15:59:04 16:01:36 14° 260° (W) 16:03:55 437.305
ITUPSAT 1 28 Mar 16:13:01 16:15:46 15° 296° (WNW) 16:18:19 437.325
STARS 28 Mar 16:24:37 16:29:00 69° 285° (WNW) 16:33:23 437.465
AO-7 28 Mar 16:42:17 16:50:30 62° 257° (WSW) 16:58:43 29.400- 29.500
PCSat 28 Mar 16:53:14 16:57:30 22° 314° (NW) 17:01:40 145.827
HORYU 2 28 Mar 17:02:32 17:05:07 15° 269° (W) 17:07:32 437.375
Cubesat XI-IV 28 Mar 17:07:27 17:10:29 16° 62° (ENE) 17:13:45 437.490
CUTE-I 28 Mar 17:07:36 17:10:36 16° 62° (ENE) 17:13:49 437.470
MOZHAYETS 4 28 Mar 17:18:01 17:22:21 38° 97° (E) 17:26:42
M-CUBED/EXP-1 PRIME 28 Mar 17:25:49 17:28:47 17° 95° (E) 17:31:55 437.505
KKS-1 28 Mar 17:29:41 17:30:41 10° 297° (WNW) 17:31:25 437.445
JAS-2 28 Mar 17:37:09 17:43:11 32° 269° (W) 17:49:41 435.910
RS-15 28 Mar 18:17:12 18:25:43 29° 105° (ESE) 18:34:42 29.354- 29.394
GONETS M04 28 Mar 18:21:32 18:26:22 17° 79° (E) 18:31:44
SO-50 28 Mar 18:29:21 18:32:28 19° 111° (ESE) 18:35:48 436.795
AUBIESAT-1 28 Mar 18:35:31 18:40:23 77° 107° (ESE) 18:45:07 437.475
BEESAT 2 28 Mar 18:35:35 18:37:49 14° 41° (NE) 18:40:10 435.950
PRISM 28 Mar 18:39:33 18:41:50 15° 91° (E) 18:44:16 437.425
Cubesat XI-IV 28 Mar 18:44:43 18:50:04 70° 257° (WSW) 18:55:27 437.490
CUTE-I 28 Mar 18:44:48 18:50:09 71° 257° (WSW) 18:55:32 437.470
MOZHAYETS 4 28 Mar 18:55:50 18:59:22 21° 293° (WNW) 19:02:47
M-CUBED/EXP-1 PRIME 28 Mar 18:59:15 19:04:02 56° 292° (WNW) 19:08:42 437.505
CUBESAT XI-V 28 Mar 19:02:32 19:06:50 37° 97° (E) 19:11:06 437.345
BEESAT 3 28 Mar 19:12:44 19:16:30 33° 51° (NE) 19:20:13 437.485
STRAND 1 28 Mar 19:28:26 19:33:07 36° 97° (E) 19:37:48 437.568
HO-68 28 Mar 19:31:20 19:36:41 24° 60° (ENE) 19:42:15 435.675
GOMX 1 28 Mar 19:33:03 19:33:49 11° 65° (ENE) 19:34:51 467.674
AIST 2 28 Mar 19:41:38 19:44:59 22° 46° (NE) 19:48:21 435.215
CANX-2 28 Mar 19:49:03 19:51:13 14° 66° (ENE) 19:53:35 2200.000
CUTE 1.7 + AOD 2 28 Mar 20:02:25 20:05:14 18° 67° (ENE) 20:08:11 437.475
SO-50 28 Mar 20:08:09 20:12:39 49° 307° (NW) 20:17:19 436.795
AUBIESAT-1 28 Mar 20:12:03 20:14:36 14° 302° (WNW) 20:16:57 437.475
BEESAT 2 28 Mar 20:12:21 20:16:29 69° 241° (WSW) 20:20:32 435.950
GONETS M04 28 Mar 20:13:25 20:22:08 89° 278° (W) 20:30:56
PRISM 28 Mar 20:13:37 20:17:37 43° 287° (WNW) 20:21:32 437.425
BRITE-PL 28 Mar 20:16:08 20:20:43 50° 74° (ENE) 20:25:02 437.365/2234.400
RS-15 28 Mar 20:26:17 20:37:11 74° 306° (NW) 20:48:18 29.354- 29.394
AAUSAT CUBESAT 2 28 Mar 20:29:46 20:32:52 21° 69° (ENE) 20:36:05 437.432
SEEDS 28 Mar 20:31:54 20:35:35 31° 71° (ENE) 20:39:22 437.485
CUBESAT XI-V 28 Mar 20:40:31 20:44:04 22° 292° (WNW) 20:47:30 437.345
CINEMA 3 28 Mar 20:46:14 20:49:24 22° 69° (ENE) 20:52:38 145.822/145.860
Oscar 11 28 Mar 20:49:25 20:52:12 17° 67° (ENE) 20:55:08 145.826/435.025
BEESAT 3 28 Mar 20:51:10 20:54:24 22° 247° (WSW) 20:57:29 437.485
COMPASS 1 28 Mar 20:55:13 20:59:13 46° 74° (ENE) 21:03:17 437.405
CUSAT 1 28 Mar 20:55:51 20:58:10 22° 97° (E) 21:00:21 437.405
DOVE 4 28 Mar 20:59:42 21:04:02 62° 75° (ENE) 21:08:12 437.250
FUNcube-1 28 Mar 21:00:32 21:01:17 11° 64° (ENE) 21:02:17 145.935
UWE-3 28 Mar 21:01:17 21:03:22 14° 66° (ENE) 21:05:38 435.000/436.395/437.385
CUBEBUG 2 28 Mar 21:03:53 21:06:40 18° 68° (ENE) 21:09:35 437.445
GOMX 1 28 Mar 21:07:01 21:11:34 72° 259° (WSW) 21:15:53 467.674
STRAND 1 28 Mar 21:07:57 21:12:11 26° 293° (WNW) 21:16:20 437.568
ZACube-1 28 Mar 21:11:30 21:13:45 15° 66° (ENE) 21:16:09 437.345
HO-68 28 Mar 21:16:44 21:23:52 68° 257° (WSW) 21:31:03 435.675
AIST 2 28 Mar 21:19:47 21:23:44 38° 244° (WSW) 21:27:36 435.215
CANX-2 28 Mar 21:22:41 21:26:47 50° 261° (W) 21:30:57 2200.000
CUTE 1.7 + AOD 2 28 Mar 21:36:57 21:40:54 38° 263° (W) 21:44:53 437.475
DANDE 28 Mar 21:39:42 21:42:57 82° 100° (E) 21:45:42 436.750
DELFI C3 28 Mar 21:48:23 21:52:21 58° 75° (ENE) 21:56:24 145.870
UKube-1 28 Mar 21:54:18 21:58:14 35° 71° (ENE) 22:02:12 .
BRITE-PL 28 Mar 21:56:42 21:59:32 15° 269° (W) 22:02:03 437.365/2234.400
DX 1 28 Mar 22:03:14 22:07:24 46° 73° (ENE) 22:11:36 434.975-435.025
AAUSAT CUBESAT 2 28 Mar 22:04:38 22:08:21 31° 264° (W) 22:12:04 437.432
HUMSAT D 28 Mar 22:07:03 22:10:36 30° 71° (ENE) 22:14:14 437.325/437.525
SEEDS 28 Mar 22:08:15 22:11:29 21° 267° (W) 22:14:38 437.485
GONETS M04 28 Mar 22:14:40 22:20:30 18° 300° (WNW) 22:25:53
CINEMA 3 28 Mar 22:22:49 22:26:31 29° 264° (W) 22:30:08 145.822/145.860
Oscar 11 28 Mar 22:24:01 22:28:07 41° 262° (W) 22:32:13 145.826/435.025
COMPASS 1 28 Mar 22:33:01 22:35:15 14° 270° (W) 22:37:18 437.405
FUNcube-1 28 Mar 22:33:02 22:37:09 65° 259° (WSW) 22:41:17 145.935
UWE-3 28 Mar 22:35:34 22:39:35 47° 261° (W) 22:43:36 435.000/436.395/437.385
CUBEBUG 2 28 Mar 22:39:21 22:43:11 35° 263° (W) 22:46:59 437.445
VELOX 1 28 Mar 22:40:11 22:44:28 49° 73° (ENE) 22:48:46 145.980
DOVE 4 28 Mar 22:41:29 22:42:17 10° 271° (W) 22:42:47 437.250
RS-15 28 Mar 22:43:07 22:52:00 26° 334° (NNW) 23:00:52 29.354- 29.394
CUBEBUG 1 28 Mar 22:43:14 22:46:44 24° 69° (ENE) 22:50:19 437.445
AISAT 28 Mar 22:44:28 22:48:49 57° 74° (ENE) 22:53:11 437.250
ZACube-1 28 Mar 22:45:49 22:49:48 44° 262° (W) 22:53:48 437.345
UNISAT 6 28 Mar 22:45:57 22:49:19 20° 93° (E) 22:52:51 437.425
NANOSAT C BR1 28 Mar 22:53:44 22:54:27 10° 88° (E) 22:55:26 145.865
TIGRISAT 28 Mar 22:56:15 23:00:01 25° 95° (E) 23:03:55 435.000
POLYITAN 1 28 Mar 22:56:32 22:58:06 12° 89° (E) 22:59:53 437.675
50 SAT 28 Mar 23:01:08 23:05:02 87° 77° (ENE) 23:08:59 437.505
ESTCUBE 1 28 Mar 23:11:29 23:15:55 55° 74° (ENE) 23:20:24 437.505/2401.250
ANTELSAT 28 Mar 23:25:39 23:30:09 54° 100° (E) 23:34:44 437.575/2403.000
DELFI C3 28 Mar 23:27:16 23:28:01 10° 272° (W) 23:28:30 145.870
ISS 28 Mar 23:30:56 23:34:12 89° 122° (ESE) 23:37:27 145.825
UKube-1 28 Mar 23:31:16 23:34:31 20° 267° (W) 23:37:39 .
QB50P1 28 Mar 23:32:28 23:36:13 31° 96° (E) 23:40:00 145.935-145.965
DUCHIFAT 1 28 Mar 23:34:43 23:38:29 32° 96° (E) 23:42:18 145.980
DX 1 28 Mar 23:41:21 23:43:57 15° 269° (W) 23:46:24 434.975-435.025
HUMSAT D 28 Mar 23:43:21 23:46:28 20° 267° (W) 23:49:29 437.325/437.525
QB50P2 28 Mar 23:46:49 23:50:54 46° 99° (E) 23:55:00 145.880/145.840
PCSat 28 Mar 23:56:59 00:02:05 41° 54° (NE) 00:07:11 145.827
YUBILEINY 29 Mar 00:11:27 00:18:44 29° 67° (ENE) 00:26:12 435.215
POPSAT HIP 1 29 Mar 00:15:40 00:19:54 82° 284° (WNW) 00:24:08 437.405
BUGSAT 1 29 Mar 00:18:30 00:22:33 76° 103° (ESE) 00:26:34 437.445
VELOX 1 29 Mar 00:18:47 00:21:22 15° 269° (W) 00:23:46 145.980
CUBEBUG 1 29 Mar 00:19:05 00:23:00 30° 264° (W) 00:26:52 437.445
UNISAT 6 29 Mar 00:22:01 00:26:15 38° 288° (WNW) 00:30:32 437.425
TISAT 1 29 Mar 00:22:10 00:26:20 63° 74° (ENE) 00:30:32 437.305
AISAT 29 Mar 00:23:48 00:25:52 13° 271° (W) 00:27:41 437.250
NANOSAT C BR1 29 Mar 00:26:37 00:30:48 61° 285° (WNW) 00:34:57 145.865
SPROUT 29 Mar 00:30:04 00:34:22 89° 253° (WSW) 00:38:41 437.525
POLYITAN 1 29 Mar 00:30:17 00:34:26 54° 286° (WNW) 00:38:34 437.675
TIGRISAT 29 Mar 00:32:46 00:36:47 30° 290° (WNW) 00:40:47 435.000
ESTCUBE 1 29 Mar 00:50:46 00:53:13 14° 271° (W) 00:55:26 437.505/2401.250
SWISSCUBE 29 Mar 00:51:11 00:54:57 24° 67° (ENE) 00:58:51 437.505
BEESAT 29 Mar 00:54:18 00:58:02 24° 67° (ENE) 01:01:54 436.000
RS-15 29 Mar 01:02:16 01:09:46 20° 9° (N) 01:17:36 29.354- 29.394
ANTELSAT 29 Mar 01:03:48 01:06:35 16° 294° (WNW) 01:09:12 437.575/2403.000
ISS 29 Mar 01:08:39 01:10:59 18° 340° (NNW) 01:13:17 145.825
QB50P1 29 Mar 01:08:41 01:11:58 22° 291° (WNW) 01:15:08 145.935-145.965
DUCHIFAT 1 29 Mar 01:10:58 01:14:11 21° 291° (WNW) 01:17:16 145.980
QB50P2 29 Mar 01:23:57 01:26:29 15° 294° (WNW) 01:28:52 145.880/145.840
ITUPSAT 1 29 Mar 01:39:37 01:44:22 66° 75° (ENE) 01:49:11 437.325
PCSat 29 Mar 01:40:46 01:45:21 28° 251° (WSW) 01:49:48 145.827
Oscar 19 29 Mar 02:00:55 02:05:41 37° 97° (E) 02:10:29 437.125/150
TISAT 1 29 Mar 02:01:58 02:02:38 10° 272° (W) 02:03:01 437.305
YUBILEINY 29 Mar 02:07:35 02:16:15 61° 268° (W) 02:24:47 435.215
Gurwin Techsat 1B 29 Mar 02:13:51 02:15:42 12° 87° (E) 02:17:54 435.225
SWISSCUBE 29 Mar 02:28:14 02:32:40 36° 263° (W) 02:37:05 437.505
BEESAT 29 Mar 02:31:18 02:35:44 36° 263° (W) 02:40:08 436.000
KKS-1 29 Mar 02:47:33 02:51:56 64° 75° (ENE) 02:56:20 437.445
ISS 29 Mar 02:47:34 02:48:24 11° 0° (N) 02:49:14 145.825
SO-50 29 Mar 03:00:27 03:03:58 19° 42° (NE) 03:07:34 436.795
ITAMSAT 1 29 Mar 03:05:06 03:10:06 48° 99° (E) 03:15:06 435.822/435.867
RS-15 29 Mar 03:15:57 03:26:30 41° 41° (NE) 03:37:37 29.354- 29.394
ITUPSAT 1 29 Mar 03:20:38 03:22:50 13° 272° (W) 03:24:45 437.325
STARS 29 Mar 03:20:45 03:25:08 86° 257° (WSW) 03:29:32 437.465
Oscar 19 29 Mar 03:40:36 03:44:54 26° 293° (WNW) 03:49:06 437.125/150
Gurwin Techsat 1B 29 Mar 03:51:05 03:56:25 78° 286° (WNW) 04:01:43 435.225
M-CUBED/EXP-1 PRIME 29 Mar 04:14:13 04:16:52 17° 60° (ENE) 04:19:47 437.505
MOZHAYETS 4 29 Mar 04:19:24 04:23:32 34° 71° (ENE) 04:27:44
ISS 29 Mar 04:23:27 04:25:48 18° 20° (NNE) 04:28:10 145.825
AIST 1 29 Mar 04:26:28 04:30:47 58° 95° (E) 04:35:08
KKS-1 29 Mar 04:27:43 04:29:06 11° 272° (W) 04:30:13 437.445
O/OREOS (USA 219) 29 Mar 04:29:21 04:33:54 70° 110° (ESE) 04:38:30 437.305
SO-50 29 Mar 04:40:06 04:45:02 67° 241° (WSW) 04:49:54 436.795
AO-7 29 Mar 04:44:31 04:52:27 49° 100° (E) 05:00:26 29.400- 29.500
ITAMSAT 1 29 Mar 04:45:26 04:49:19 21° 295° (WNW) 04:53:03 435.822/435.867
JAS-2 29 Mar 04:46:37 04:54:03 48° 96° (E) 05:00:55 435.910
HORYU 2 29 Mar 04:52:07 04:56:38 74° 285° (WNW) 05:01:08 437.375
VERMONT LUNAR 29 Mar 05:15:56 05:18:23 19° 150° (SSE) 05:20:52 437.305
AUBIESAT-1 29 Mar 05:23:11 05:27:09 86° 75° (ENE) 05:31:33 437.475
RS-15 29 Mar 05:28:20 05:39:44 67° 244° (WSW) 05:51:34 29.354- 29.394
PRISM 29 Mar 05:30:45 05:31:59 11° 64° (ENE) 05:33:26 437.425
Gurwin Techsat 1B 29 Mar 05:34:43 05:35:38 10° 301° (WNW) 05:36:12 435.225
M-CUBED/EXP-1 PRIME 29 Mar 05:47:38 05:51:25 42° 258° (WSW) 05:55:32 437.505
PHONESAT 2.4 29 Mar 05:53:23 05:55:41 17° 149° (SSE) 05:58:04 2401.200-2431.200
MOZHAYETS 4 29 Mar 05:57:09 06:00:51 23° 267° (W) 06:04:29
ISS 29 Mar 05:59:19 06:02:33 81° 219° (SW) 06:05:46 145.825
CUBESAT XI-V 29 Mar 06:05:17 06:09:31 34° 71° (ENE) 06:13:48 437.345
AIST 1 29 Mar 06:07:05 06:08:57 12° 293° (WNW) 06:10:35
O/OREOS (USA 219) 29 Mar 06:11:35 06:13:55 13° 309° (NW) 06:16:05 437.305
GONETS M04 29 Mar 06:24:40 06:32:59 45° 73° (ENE) 06:41:23
JAS-2 29 Mar 06:31:55 06:38:51 36° 295° (WNW) 06:45:14 435.910
AO-7 29 Mar 06:37:37 06:45:07 39° 298° (WNW) 06:52:31 29.400- 29.500
STRAND 1 29 Mar 06:43:32 06:48:28 49° 72° (ENE) 06:53:27 437.568
VERMONT LUNAR 29 Mar 06:52:27 06:55:46 68° 165° (SSE) 06:59:07 437.305
CUTE-I 29 Mar 07:02:43 07:07:52 49° 99° (E) 07:13:00 437.470
PRISM 29 Mar 07:02:48 07:06:59 66° 258° (WSW) 07:11:12 437.425
Cubesat XI-IV 29 Mar 07:02:48 07:07:58 50° 99° (E) 07:13:07 437.490
PHONESAT 2.4 29 Mar 07:30:10 07:33:39 61° 163° (SSE) 07:37:09 2401.200-2431.200
CUSAT 1 29 Mar 07:30:21 07:33:57 25° 77° (ENE) 07:38:32 437.405
CUBESAT XI-V 29 Mar 07:43:14 07:47:03 23° 267° (W) 07:50:46 437.345
RS-15 29 Mar 07:45:19 07:50:30 13° 261° (W) 07:54:31 29.354- 29.394
DANDE 29 Mar 08:17:36 08:21:32 56° 80° (E) 08:26:52 436.750
GONETS M04 29 Mar 08:21:44 08:29:46 40° 273° (W) 08:37:39
BRITE-PL 29 Mar 08:22:29 08:24:42 14° 91° (E) 08:27:10 437.365/2234.400
STRAND 1 29 Mar 08:24:18 08:28:00 19° 269° (W) 08:31:32 437.568
VERMONT LUNAR 29 Mar 08:30:08 08:33:30 80° 1° (N) 08:36:52 437.305
CUTE-I 29 Mar 08:43:38 08:47:39 22° 295° (WNW) 08:51:30 437.470
Cubesat XI-IV 29 Mar 08:43:45 08:47:46 21° 295° (WNW) 08:51:36 437.490
HO-68 29 Mar 08:46:01 08:51:34 24° 92° (E) 08:57:19 435.675
DOVE 4 29 Mar 08:59:56 09:02:42 17° 92° (E) 09:05:43 437.250
PHONESAT 2.4 29 Mar 09:08:27 09:12:00 80° 2° (N) 09:15:33 2401.200-2431.200
CANX-2 29 Mar 09:08:56 09:12:40 28° 95° (E) 09:16:27 2200.000
GOMX 1 29 Mar 09:09:13 09:13:02 31° 97° (E) 09:17:03 467.674
CUSAT 1 29 Mar 09:12:47 09:16:43 30° 263° (W) 09:21:35 437.405
CUTE 1.7 + AOD 2 29 Mar 09:22:43 09:26:43 37° 97° (E) 09:30:44 437.475
UNISAT 6 29 Mar 09:45:30 09:48:05 16° 66° (ENE) 09:50:50 437.425
AAUSAT CUBESAT 2 29 Mar 09:48:00 09:52:01 41° 98° (E) 09:56:03 437.432
SEEDS 29 Mar 09:52:05 09:56:23 68° 101° (ESE) 10:00:38 437.485
TIGRISAT 29 Mar 09:55:20 09:58:23 20° 68° (ENE) 10:01:34 435.000
BRITE-PL 29 Mar 09:59:32 10:03:32 44° 286° (WNW) 10:07:41 437.365/2234.400
DANDE 29 Mar 10:02:59 10:04:53 12° 265° (W) 10:06:39 436.750
BEESAT 2 29 Mar 10:06:24 10:09:47 26° 114° (ESE) 10:13:17 435.950
VERMONT LUNAR 29 Mar 10:07:53 10:11:10 53° 199° (SSW) 10:14:28 437.305
Oscar 11 29 Mar 10:11:56 10:15:57 36° 97° (E) 10:20:00 145.826/435.025
COMPASS 1 29 Mar 10:14:50 10:19:07 81° 284° (WNW) 10:23:21 437.405
CINEMA 3 29 Mar 10:17:03 10:21:26 62° 101° (E) 10:26:01 145.822/145.860
FUNcube-1 29 Mar 10:22:19 10:25:53 24° 94° (E) 10:29:35 145.935
ANTELSAT 29 Mar 10:24:25 10:28:26 42° 72° (ENE) 10:32:33 437.575/2403.000
QB50P1 29 Mar 10:25:12 10:28:26 22° 69° (ENE) 10:31:46 145.935-145.965
UWE-3 29 Mar 10:25:49 10:29:49 34° 97° (E) 10:33:56 435.000/436.395/437.385
DUCHIFAT 1 29 Mar 10:27:07 10:30:23 23° 69° (ENE) 10:33:45 145.980
CUBEBUG 2 29 Mar 10:30:17 10:34:33 46° 99° (E) 10:38:57 437.445
HO-68 29 Mar 10:32:43 10:39:49 62° 290° (WNW) 10:46:51 435.675
ZACube-1 29 Mar 10:34:49 10:38:49 34° 97° (E) 10:42:55 437.345
DOVE 4 29 Mar 10:36:36 10:40:41 41° 287° (WNW) 10:44:56 437.250
AISAT 29 Mar 10:38:28 10:39:40 11° 89° (E) 10:41:09 437.250
QB50P2 29 Mar 10:39:24 10:43:08 32° 71° (ENE) 10:46:56 145.880/145.840
50 SAT 29 Mar 10:41:45 10:43:06 12° 89° (E) 10:44:41 437.505
BEESAT 3 29 Mar 10:42:52 10:46:56 79° 121° (ESE) 10:51:05 437.485
CANX-2 29 Mar 10:45:00 10:48:31 24° 291° (WNW) 10:51:57 2200.000
PHONESAT 2.4 29 Mar 10:46:51 10:50:21 62° 197° (SSW) 10:53:51 2401.200-2431.200
GOMX 1 29 Mar 10:47:45 10:51:05 22° 290° (WNW) 10:54:26 467.674
CUTE 1.7 + AOD 2 29 Mar 10:59:18 11:02:25 19° 292° (WNW) 11:05:25 437.475
DELFI C3 29 Mar 11:03:47 11:07:54 72° 284° (WNW) 11:11:58 145.870
ESTCUBE 1 29 Mar 11:07:07 11:08:43 12° 88° (E) 11:10:35 437.505/2401.250
POPSAT HIP 1 29 Mar 11:07:43 11:11:54 68° 76° (ENE) 11:16:06 437.405
BUGSAT 1 29 Mar 11:07:52 11:11:52 47° 74° (ENE) 11:15:52 437.445
AIST 2 29 Mar 11:16:42 11:20:49 51° 118° (ESE) 11:25:01 435.215
UKube-1 29 Mar 11:18:08 11:22:27 71° 101° (E) 11:26:46 .
NANOSAT C BR1 29 Mar 11:18:21 11:22:34 89° 45° (NE) 11:26:48 145.865
UNISAT 6 29 Mar 11:20:31 11:24:35 43° 262° (W) 11:28:42 437.425
POLYITAN 1 29 Mar 11:22:29 11:26:42 80° 257° (WSW) 11:30:56 437.675
AAUSAT CUBESAT 2 29 Mar 11:24:37 11:27:22 17° 293° (WNW) 11:30:00 437.432
HUMSAT D 29 Mar 11:26:46 11:31:01 65° 100° (E) 11:35:18 437.325/437.525
DX 1 29 Mar 11:28:09 11:32:31 84° 287° (WNW) 11:36:51 434.975-435.025
SEEDS 29 Mar 11:30:19 11:31:42 11° 295° (WNW) 11:32:50 437.485
TIGRISAT 29 Mar 11:31:05 11:34:57 34° 263° (W) 11:38:51 435.000
BEESAT 2 29 Mar 11:44:12 11:47:52 29° 310° (NW) 11:51:32 435.950
VERMONT LUNAR 29 Mar 11:46:40 11:48:28 14° 213° (SSW) 11:50:11 437.305
Oscar 11 29 Mar 11:48:42 11:51:56 20° 292° (WNW) 11:55:04 145.826/435.025
CINEMA 3 29 Mar 11:56:11 11:58:16 13° 294° (WNW) 12:00:10 145.822/145.860
FUNcube-1 29 Mar 11:58:25 12:02:15 29° 289° (WNW) 12:06:04 145.935
QB50P1 29 Mar 12:00:28 12:04:13 29° 264° (W) 12:07:53 145.935-145.965
DUCHIFAT 1 29 Mar 12:02:26 12:06:07 28° 264° (W) 12:09:46 145.980
UWE-3 29 Mar 12:02:46 12:06:12 22° 291° (WNW) 12:09:36 435.000/436.395/437.385
ANTELSAT 29 Mar 12:02:53 12:05:32 15° 269° (W) 12:08:02 437.575/2403.000
VELOX 1 29 Mar 12:07:44 12:12:08 73° 285° (WNW) 12:16:31 145.980
CUBEBUG 2 29 Mar 12:08:04 12:10:58 17° 293° (WNW) 12:13:45 437.445
CUBEBUG 1 29 Mar 12:08:09 12:12:22 50° 99° (E) 12:16:34 437.445
TISAT 1 29 Mar 12:10:46 12:11:00 10° 88° (E) 12:11:33 437.305
ZACube-1 29 Mar 12:11:38 12:15:02 22° 291° (WNW) 12:18:22 437.345
AISAT 29 Mar 12:12:24 12:16:47 62° 286° (WNW) 12:21:07 437.250
50 SAT 29 Mar 12:14:27 12:18:23 51° 286° (WNW) 12:22:19 437.505
QB50P2 29 Mar 12:15:58 12:19:09 20° 267° (W) 12:22:14 145.880/145.840
SPROUT 29 Mar 12:18:39 12:21:19 17° 91° (E) 12:24:09 437.525
BEESAT 3 29 Mar 12:23:34 12:25:35 13° 320° (NW) 12:27:29 437.485
HO-68 29 Mar 12:23:46 12:26:18 12° 308° (NW) 12:28:24 435.675
PHONESAT 2.4 29 Mar 12:25:52 12:28:19 17° 211° (SSW) 12:30:43 2401.200-2431.200
ESTCUBE 1 29 Mar 12:41:37 12:46:06 61° 286° (WNW) 12:50:32 437.505/2401.250
BUGSAT 1 29 Mar 12:45:33 12:47:40 13° 270° (W) 12:49:35 437.445
AIST 2 29 Mar 12:56:40 12:59:45 19° 316° (NW) 13:02:45 435.215
UKube-1 29 Mar 12:56:51 12:58:06 11° 297° (WNW) 12:59:07 .
O/OREOS (USA 219) 29 Mar 13:02:33 13:04:38 13° 51° (NE) 13:06:56 437.305
HUMSAT D 29 Mar 13:04:48 13:06:20 11° 295° (WNW) 13:07:39 437.325/437.525
YUBILEINY 29 Mar 13:11:52 13:19:18 33° 86° (E) 13:26:59 435.215
Oscar 19 29 Mar 13:17:06 13:22:00 50° 72° (ENE) 13:26:59 437.125/150
Gurwin Techsat 1B 29 Mar 13:33:35 13:37:16 20° 65° (ENE) 13:41:07 435.225
ITUPSAT 1 29 Mar 13:42:06 13:45:16 18° 91° (E) 13:48:36 437.325
TISAT 1 29 Mar 13:43:09 13:47:19 62° 286° (WNW) 13:51:27 437.305
CUBEBUG 1 29 Mar 13:45:54 13:48:22 15° 295° (WNW) 13:50:40 437.445
SPROUT 29 Mar 13:53:38 13:57:40 40° 287° (WNW) 14:01:38 437.525
AO-7 29 Mar 13:55:49 13:59:17 14° 48° (NE) 14:03:14 29.400- 29.500
ITAMSAT 1 29 Mar 14:22:18 14:27:29 69° 74° (ENE) 14:32:42 435.822/435.867
SWISSCUBE 29 Mar 14:28:50 14:33:35 61° 101° (E) 14:38:18 437.505
BEESAT 29 Mar 14:31:47 14:36:32 60° 101° (E) 14:41:15 436.000
AIST 1 29 Mar 14:35:59 14:38:06 14° 68° (ENE) 14:40:25
PCSat 29 Mar 14:38:00 14:43:01 41° 112° (ESE) 14:48:07 145.827
O/OREOS (USA 219) 29 Mar 14:40:07 14:44:40 69° 251° (WSW) 14:49:07 437.305
KKS-1 29 Mar 14:41:12 14:43:10 13° 90° (E) 14:45:22 437.445
Oscar 19 29 Mar 14:58:09 15:01:44 18° 269° (W) 15:05:08 437.125/150
JAS-2 29 Mar 14:58:38 15:03:37 22° 59° (ENE) 15:09:10 435.910
YUBILEINY 29 Mar 15:07:16 15:15:50 52° 285° (WNW) 15:24:24 435.215
Gurwin Techsat 1B 29 Mar 15:11:42 15:16:53 53° 260° (W) 15:22:06 435.225
STARS 29 Mar 15:12:14 15:15:14 18° 92° (E) 15:18:21 437.465
ITUPSAT 1 29 Mar 15:18:51 15:23:28 46° 288° (WNW) 15:28:00 437.325
